User: anonymous   Login
Location: *
(2.5500°S, 65.9667°W)
Time: 17:31:28
(UTC+00:00)
Language:

Cosmos 1437 Rocket - Orbit

View from above orbital plane
View from above orbital plane
View from above satellite
View from above satellite

Ground track
Ground track

The orbit data is extracted from the following two-line orbital elements,

1 13771U 83003B   22024.62035128  .00001669  00000-0  95351-4 0  9999
2 13771  81.1667 223.3359 0045423 180.8795 179.2359 15.11268353127756
Epoch (UTC): 24 January 2022 14:53:18
Eccentricity: 0.0045423
inclination: 81.1667°
perigee height: 501 km
apogee height: 564 km
right ascension of ascending node: 223.3359°
argument of perigee: 180.8795°
revolutions per day: 15.11268353
mean anomaly at epoch: 179.2359°
orbit number at epoch: 12775

The dashed part of the orbit path shows where the satellite is in the earth's shadow,  

DLR